Sturgis, MI

3:37 PM EDT on July 26, 2017 (GMT -0400)
Kirsch Municipal

Weather History for KIRS - July, 2013

Change the Weather History Date:

Sunday, July 7, 2013

  Actual Average (KHAI) Record (KHAI)
Temperature  
Mean Temperature 74 °F -  
Max Temperature 82 °F 84 °F 99 °F (1988)
Min Temperature 66 °F 58 °F 46 °F (1959)
Cooling Degree Days 9    
Growing Degree Days 24 (Base 50)    
Moisture  
Dew Point 68 °F    
Average Humidity 83    
Maximum Humidity 100    
Minimum Humidity 65    
Precipitation  
Precipitation 0.00 in - - ()
Sea Level Pressure  
Sea Level Pressure 30.04 in    
Wind  
Wind Speed 4 mph (SW)    
Max Wind Speed 13 mph    
Max Gust Speed 18 mph    
Visibility 8 miles    
Events Rain    
Averages and records for this station are not official NWS values.
T = Trace of Precipitation, MM = Missing Value Source: NWS Daily Summary

Daily Weather History Graph

Daily Weather History Graph

Search for Another Location

Airport or City:

Trip Planner

Search our weather history database for the weather conditions in past years. The results will help you decide how hot, cold, wet, or windy it might be!

Date:

Astronomy

Jul. 07, 2013 Rise Set
Actual Time 6:14 AM EDT 9:18 PM EDT
Civil Twilight 5:40 AM EDT 9:52 PM EDT
Nautical Twilight 4:57 AM EDT 10:35 PM EDT
Astronomical Twilight 4:06 AM EDT 11:26 PM EDT
Moon 5:50 AM EDT (7/7) 8:41 PM EDT (7/7)
Length of Visible Light 16h 12m
Length of Day
15h 04m
Waning Crescent, 0% of the Moon is Illuminated
Jul 7
Waning Crescent
Jul 8
New
Jul 15
First Quarter
Jul 22
Full
Jul 29
Last Quarter

Hourly Weather History & Observations

Time (EDT) Temp. Heat Index Dew Point Humidity Pressure Visibility Wind Dir Wind Speed Gust Speed Precip Events Conditions
12:15 AM 69.8 °F - 66.2 °F 88% 30.06 in 10.0 mi Calm Calm - N/A   Clear
12:35 AM 69.8 °F - 66.2 °F 88% 30.06 in 10.0 mi Calm Calm - N/A   Scattered Clouds
12:54 AM 69.8 °F - 66.2 °F 88% 30.05 in 10.0 mi Calm Calm - N/A   Mostly Cloudy
1:15 AM 69.8 °F - 66.2 °F 88% 30.06 in 10.0 mi Calm Calm - N/A   Overcast
1:35 AM 69.8 °F - 66.2 °F 88% 30.06 in 7.0 mi SSW 4.6 mph - N/A   Overcast
1:54 AM 69.8 °F - 66.2 °F 88% 30.05 in 7.0 mi SSW 5.8 mph - N/A   Overcast
2:15 AM 69.8 °F - 66.2 °F 88% 30.04 in 7.0 mi SW 5.8 mph - N/A   Overcast
2:35 AM 69.8 °F - 66.2 °F 88% 30.04 in 7.0 mi SW 5.8 mph - N/A   Mostly Cloudy
2:54 AM 69.8 °F - 66.2 °F 88% 30.04 in 7.0 mi SW 6.9 mph - N/A   Scattered Clouds
3:15 AM 69.8 °F - 66.2 °F 88% 30.04 in 7.0 mi SW 5.8 mph - N/A   Scattered Clouds
3:35 AM 69.8 °F - 66.2 °F 88% 30.04 in 7.0 mi SW 6.9 mph - N/A   Overcast
3:55 AM 69.8 °F - 66.2 °F 88% 30.04 in 7.0 mi WSW 9.2 mph - N/A   Mostly Cloudy
4:15 AM 68.0 °F - 66.2 °F 94% 30.04 in 7.0 mi West 6.9 mph - N/A   Mostly Cloudy
4:35 AM 68.0 °F - 66.2 °F 94% 30.04 in 5.0 mi WSW 6.9 mph - N/A   Drizzle
4:55 AM 66.2 °F - 64.4 °F 94% 30.04 in 7.0 mi West 11.5 mph - N/A   Overcast
5:15 AM 66.2 °F - 64.4 °F 94% 30.03 in 10.0 mi WNW 6.9 mph - N/A   Light Drizzle
5:35 AM 66.2 °F - 64.4 °F 94% 30.03 in 10.0 mi Calm Calm - N/A   Overcast
5:55 AM 66.2 °F - 64.4 °F 94% 30.03 in 10.0 mi Calm Calm - N/A   Overcast
6:15 AM 66.2 °F - 66.2 °F 100% 30.03 in 7.0 mi Calm Calm - N/A   Overcast
6:35 AM 66.2 °F - 66.2 °F 100% 30.04 in 5.0 mi Calm Calm - N/A   Overcast
6:55 AM 66.2 °F - 66.2 °F 100% 30.04 in 5.0 mi Calm Calm - N/A   Overcast
7:15 AM 66.2 °F - 66.2 °F 100% 30.05 in 5.0 mi South 3.5 mph - N/A   Overcast
7:34 AM 68.0 °F - 66.2 °F 94% 30.05 in 5.0 mi SSW 4.6 mph - N/A   Overcast
7:55 AM 68.0 °F - 66.2 °F 94% 30.06 in 4.0 mi SSW 4.6 mph - N/A   Mostly Cloudy
8:15 AM 68.0 °F - 66.2 °F 94% 30.06 in 4.0 mi SSW 6.9 mph - N/A   Overcast
8:34 AM 68.0 °F - 66.2 °F 94% 30.07 in 4.0 mi SW 8.1 mph - N/A   Overcast
8:55 AM 69.8 °F - 66.2 °F 88% 30.07 in 4.0 mi SW 9.2 mph - N/A   Mostly Cloudy
9:15 AM 69.8 °F - 66.2 °F 88% 30.07 in 4.0 mi WSW 5.8 mph - N/A   Mostly Cloudy
9:34 AM 71.6 °F - 66.2 °F 83% 30.06 in 5.0 mi West 5.8 mph - N/A   Scattered Clouds
9:55 AM 71.6 °F - 66.2 °F 83% 30.06 in 7.0 mi West 8.1 mph - N/A   Scattered Clouds
10:15 AM 71.6 °F - 68.0 °F 88% 30.06 in 7.0 mi WSW 3.5 mph - N/A   Scattered Clouds
10:34 AM 71.6 °F - 68.0 °F 88% 30.06 in 7.0 mi WSW 6.9 mph - N/A   Clear
10:55 AM 73.4 °F - 68.0 °F 83% 30.06 in 7.0 mi SW 5.8 mph - N/A   Clear
11:15 AM 73.4 °F - 68.0 °F 83% 30.06 in 7.0 mi SSW 8.1 mph - N/A   Scattered Clouds
11:34 AM 73.4 °F - 68.0 °F 83% 30.06 in 7.0 mi SSW 8.1 mph - N/A   Scattered Clouds
11:55 AM 75.2 °F - 68.0 °F 78% 30.06 in 7.0 mi SSW 8.1 mph - N/A   Scattered Clouds
12:15 PM 75.2 °F - 69.8 °F 83% 30.06 in 7.0 mi SSW 4.6 mph - N/A   Scattered Clouds
12:34 PM 75.2 °F - 69.8 °F 83% 30.06 in 10.0 mi Calm Calm - N/A   Scattered Clouds
12:55 PM 77.0 °F - 69.8 °F 78% 30.05 in 10.0 mi Calm Calm - N/A   Clear
1:15 PM 78.8 °F - 69.8 °F 74% 30.04 in 10.0 mi Calm Calm - N/A   Scattered Clouds
1:35 PM 78.8 °F - 68.0 °F 69% 30.04 in 10.0 mi SW 4.6 mph - N/A   Scattered Clouds
1:55 PM 78.8 °F - 69.8 °F 74% 30.04 in 10.0 mi SW 5.8 mph - N/A   Scattered Clouds
2:14 PM 78.8 °F - 69.8 °F 74% 30.03 in 10.0 mi SW 4.6 mph - N/A   Scattered Clouds
2:35 PM 80.6 °F 83.2 °F 68.0 °F 65% 30.03 in 10.0 mi SSW 5.8 mph - N/A   Clear
2:55 PM 80.6 °F 83.2 °F 68.0 °F 65% 30.03 in 10.0 mi WSW 6.9 mph - N/A   Clear
3:14 PM 80.6 °F 83.2 °F 68.0 °F 65% 30.03 in 10.0 mi SW 9.2 mph - N/A   Clear
3:35 PM 80.6 °F 83.9 °F 69.8 °F 70% 30.02 in 10.0 mi SSW 8.1 mph - N/A   Clear
3:55 PM 80.6 °F 83.9 °F 69.8 °F 70% 30.02 in 10.0 mi SW 9.2 mph - N/A   Scattered Clouds
4:14 PM 80.6 °F 83.2 °F 68.0 °F 65% 30.02 in 10.0 mi WSW 10.4 mph 16.1 mph N/A   Scattered Clouds
4:35 PM 82.4 °F 86.3 °F 69.8 °F 66% 30.01 in 10.0 mi SW 12.7 mph 18.4 mph N/A   Scattered Clouds
4:55 PM 80.6 °F 83.2 °F 68.0 °F 65% 30.00 in 10.0 mi WSW 8.1 mph - N/A   Clear
5:14 PM 80.6 °F 83.9 °F 69.8 °F 70% 30.00 in 10.0 mi SW 10.4 mph - N/A   Scattered Clouds
5:35 PM 80.6 °F 83.9 °F 69.8 °F 70% 30.00 in 10.0 mi WSW 10.4 mph - N/A   Clear
5:55 PM 80.6 °F 83.9 °F 69.8 °F 70% 29.99 in 10.0 mi WSW 11.5 mph - N/A   Scattered Clouds
6:14 PM 80.6 °F 83.9 °F 69.8 °F 70% 29.99 in 10.0 mi WSW 12.7 mph 17.3 mph N/A   Scattered Clouds
6:35 PM 80.6 °F 83.9 °F 69.8 °F 70% 30.00 in 10.0 mi West 8.1 mph - N/A   Scattered Clouds
6:55 PM 80.6 °F 83.9 °F 69.8 °F 70% 30.00 in 10.0 mi WSW 6.9 mph - N/A   Clear
7:14 PM 78.8 °F - 69.8 °F 74% 30.00 in 10.0 mi WNW 6.9 mph - N/A   Clear
7:35 PM 78.8 °F - 69.8 °F 74% 30.00 in 10.0 mi WSW 5.8 mph - N/A   Clear
7:55 PM 78.8 °F - 69.8 °F 74% 30.00 in 10.0 mi WSW 5.8 mph - N/A   Clear
8:14 PM 78.8 °F - 71.6 °F 78% 30.01 in 10.0 mi Calm Calm - N/A   Clear
8:35 PM 77.0 °F - 71.6 °F 83% 30.01 in 10.0 mi SW 5.8 mph - N/A   Clear
8:54 PM 77.0 °F - 69.8 °F 78% 30.02 in 10.0 mi SSW 4.6 mph - N/A   Clear
9:15 PM 75.2 °F - 69.8 °F 83% 30.03 in 10.0 mi SSW 6.9 mph - N/A   Mostly Cloudy
9:35 PM 75.2 °F - 69.8 °F 83% 30.03 in 10.0 mi South 6.9 mph - N/A   Mostly Cloudy
9:54 PM 75.2 °F - 69.8 °F 83% 30.03 in 10.0 mi SSW 6.9 mph - N/A   Scattered Clouds
10:15 PM 75.2 °F - 69.8 °F 83% 30.04 in 10.0 mi SSW 8.1 mph - N/A Rain Rain
10:35 PM 73.4 °F - 69.8 °F 88% 30.05 in 10.0 mi Calm Calm - N/A Rain Light Rain
10:54 PM 73.4 °F - 69.8 °F 88% 30.04 in 10.0 mi Calm Calm - N/A Rain Light Rain
11:15 PM 73.4 °F - 69.8 °F 88% 30.04 in 10.0 mi Calm Calm - N/A   Clear
11:35 PM 73.4 °F - 69.8 °F 88% 30.03 in 10.0 mi SSW 4.6 mph - N/A Rain Light Rain
11:54 PM 73.4 °F - 69.8 °F 88% 30.03 in 10.0 mi South 3.5 mph - N/A Rain Light Rain